Florence, Italy

1:50 PM CEST on March 28, 2017 (GMT +0200)
Peretola

Weather History for LIRQ - October, 2012

Change the Weather History Date:

Saturday, October 13, 2012

  Actual Average Record
Temperature  
Mean Temperature 66 °F -  
Max Temperature 73 °F 65 °F 82 °F (2000)
Min Temperature 59 °F 47 °F 42 °F (2005)
Cooling Degree Days 1    
Growing Degree Days 16 (Base 50)    
Moisture  
Dew Point 59 °F    
Average Humidity 81    
Maximum Humidity 100    
Minimum Humidity 61    
Precipitation  
Precipitation 0.00 in 0.13 in - ()
Sea Level Pressure  
Sea Level Pressure 29.86 in    
Wind  
Wind Speed 3 mph ()    
Max Wind Speed 9 mph    
Max Gust Speed -    
Visibility 5.8 miles    
Events      
Averages and records for this station are not official NWS values.
T = Trace of Precipitation, MM = Missing Value Source: Averaged Metar Reports

Daily Weather History Graph

Daily Weather History Graph

Search for Another Location

Airport or City:

Trip Planner

Search our weather history database for the weather conditions in past years. The results will help you decide how hot, cold, wet, or windy it might be!

Date:

Astronomy

Oct. 13, 2012 Rise Set
Actual Time 7:27 AM CEST 6:34 PM CEST
Civil Twilight 6:58 AM CEST 7:03 PM CEST
Nautical Twilight 6:25 AM CEST 7:36 PM CEST
Astronomical Twilight 5:51 AM CEST 8:10 PM CEST
Moon 4:54 AM CEST (10/13) 5:11 PM CEST (10/13)
Length of Visible Light 12h 05m
Length of Day
11h 07m
Waning Crescent, 6% of the Moon is Illuminated
Oct 13
Waning Crescent
Oct 15
New
Oct 22
First Quarter
Oct 29
Full
Nov 7
Last Quarter

Hourly Weather History & Observations

Time (CEST) Temp. Dew Point Humidity Pressure Visibility Wind Dir Wind Speed Gust Speed Precip Events Conditions
12:20 AM 64.4 °F 59.0 °F 83% 29.89 in 6.2 mi ESE 2.3 mph - N/A   Mostly Cloudy
12:50 AM 64.4 °F 60.8 °F 88% 29.89 in 6.2 mi ESE 2.3 mph - N/A   Mostly Cloudy
1:20 AM 62.6 °F 59.0 °F 88% 29.89 in 6.2 mi Variable 2.3 mph - N/A   Mostly Cloudy
1:50 AM 62.6 °F 59.0 °F 88% 29.89 in 6.2 mi East 3.5 mph - N/A   Mostly Cloudy
2:20 AM 62.6 °F 59.0 °F 88% 29.89 in 6.2 mi SE 2.3 mph - N/A   Scattered Clouds
2:50 AM 62.6 °F 59.0 °F 88% 29.89 in 6.2 mi Variable 1.2 mph - N/A   Scattered Clouds
3:20 AM 62.6 °F 60.8 °F 94% 29.89 in 6.2 mi ENE 3.5 mph - N/A   Scattered Clouds
3:50 AM 62.6 °F 60.8 °F 94% 29.89 in 6.2 mi ESE 2.3 mph - N/A   Scattered Clouds
4:20 AM 62.6 °F 59.0 °F 88% 29.89 in 6.2 mi SE 3.5 mph - N/A   Scattered Clouds
4:50 AM 60.8 °F 59.0 °F 94% 29.89 in 4.3 mi SW 3.5 mph - N/A   Partly Cloudy
5:20 AM 60.8 °F 59.0 °F 94% 29.89 in 4.3 mi Variable 1.2 mph - N/A   Partly Cloudy
5:50 AM 60.8 °F 59.0 °F 94% 29.89 in 4.3 mi SE 1.2 mph - N/A   Partly Cloudy
6:20 AM 60.8 °F 59.0 °F 94% 29.89 in 5.0 mi SE 2.3 mph - N/A   Scattered Clouds
6:50 AM 60.8 °F 59.0 °F 94% 29.89 in 5.0 mi SSW 3.5 mph - N/A   Scattered Clouds
7:20 AM 59.0 °F 57.2 °F 94% 29.89 in 5.0 mi WNW 4.6 mph - N/A   Partly Cloudy
7:50 AM 59.0 °F 57.2 °F 94% 29.89 in 5.0 mi Variable 2.3 mph - N/A   Scattered Clouds
8:20 AM 59.0 °F 59.0 °F 100% 29.89 in 5.0 mi Calm Calm - N/A   Scattered Clouds
8:50 AM 60.8 °F 59.0 °F 94% 29.89 in 3.7 mi Variable 2.3 mph - N/A   Partly Cloudy
9:20 AM 62.6 °F 60.8 °F 94% 29.92 in 3.7 mi Calm Calm - N/A   Partly Cloudy
9:50 AM 62.6 °F 60.8 °F 94% 29.92 in 4.3 mi Calm Calm - N/A   Partly Cloudy
10:20 AM 66.2 °F 62.6 °F 88% 29.92 in 4.3 mi Calm Calm - N/A   Partly Cloudy
10:50 AM 68.0 °F 60.8 °F 78% 29.92 in 6.2 mi Variable 1.2 mph - N/A   Scattered Clouds
11:20 AM 68.0 °F 60.8 °F 78% 29.89 in 6.2 mi Variable 1.2 mph - N/A   Partly Cloudy
11:50 AM 71.6 °F 60.8 °F 69% 29.89 in 6.2 mi Variable 1.2 mph - N/A   Partly Cloudy
12:20 PM 69.8 °F 60.8 °F 73% 29.89 in 6.2 mi ESE 3.5 mph - N/A   Scattered Clouds
12:50 PM 69.8 °F 60.8 °F 73% 29.89 in 6.2 mi Variable 2.3 mph - N/A   Scattered Clouds
1:20 PM 71.6 °F 59.0 °F 64% 29.86 in 6.2 mi ENE 3.5 mph - N/A   Scattered Clouds
1:50 PM 71.6 °F 59.0 °F 64% 29.86 in 6.2 mi SE 4.6 mph - N/A   Scattered Clouds
2:20 PM 73.4 °F 59.0 °F 61% 29.83 in 6.2 mi East 8.1 mph - N/A   Scattered Clouds
2:50 PM 71.6 °F 59.0 °F 64% 29.83 in 6.2 mi ESE 8.1 mph - N/A   Scattered Clouds
3:20 PM 69.8 °F 59.0 °F 68% 29.83 in 6.2 mi ESE 9.2 mph - N/A   Scattered Clouds
3:50 PM 69.8 °F 59.0 °F 68% 29.83 in 6.2 mi SE 6.9 mph - N/A   Partly Cloudy
4:20 PM 71.6 °F 59.0 °F 64% 29.80 in 6.2 mi East 4.6 mph - N/A   Partly Cloudy
4:50 PM 71.6 °F 59.0 °F 64% 29.80 in 6.2 mi ESE 4.6 mph - N/A   Partly Cloudy
5:20 PM 69.8 °F 60.8 °F 73% 29.80 in 6.2 mi Variable 2.3 mph - N/A   Scattered Clouds
5:50 PM 69.8 °F 60.8 °F 73% 29.80 in 6.2 mi South 3.5 mph - N/A   Scattered Clouds
6:20 PM 68.0 °F 60.8 °F 78% 29.80 in 6.2 mi Variable 2.3 mph - N/A   Scattered Clouds
6:50 PM 68.0 °F 60.8 °F 78% 29.80 in 6.2 mi SSW 3.5 mph - N/A   Mostly Cloudy
7:20 PM 68.0 °F 59.0 °F 73% 29.80 in 6.2 mi SSW 5.8 mph - N/A   Scattered Clouds
7:50 PM 66.2 °F 57.2 °F 73% 29.83 in 6.2 mi Variable 2.3 mph - N/A   Scattered Clouds
8:20 PM 66.2 °F 57.2 °F 73% 29.83 in 6.2 mi SE 5.8 mph - N/A   Mostly Cloudy
8:50 PM 64.4 °F 57.2 °F 77% 29.83 in 6.2 mi East 5.8 mph - N/A   Scattered Clouds
9:20 PM 66.2 °F 57.2 °F 73% 29.83 in 6.2 mi SE 2.3 mph - N/A   Scattered Clouds
9:50 PM 62.6 °F 57.2 °F 82% 29.83 in 6.2 mi East 4.6 mph - N/A   Scattered Clouds
10:20 PM 62.6 °F 57.2 °F 82% 29.83 in 6.2 mi East 5.8 mph - N/A   Scattered Clouds
10:50 PM 64.4 °F 57.2 °F 77% 29.83 in 6.2 mi East 4.6 mph - N/A   Mostly Cloudy
11:20 PM 62.6 °F 57.2 °F 82% 29.83 in 6.2 mi Variable 1.2 mph - N/A   Scattered Clouds
11:50 PM 60.8 °F 57.2 °F 88% 29.83 in 6.2 mi Calm Calm - N/A   Scattered Clouds